Weather in Dmitrova Gora

Russia / Tver Oblast     56°39′34″N   36°58′31″E
temp.,
°C
wind,
m/s
gust,
m/s
humid.,
%
clouds,
%
prec.,
mm/h
press.,
hPa
HPBL,
m
6 may, thu
thu600:00+5ssw119893 0.0 100710
03:00+7se379893 0.0 1006176
06:00+7sse31295100 0.0 1004316
09:00+13s51482100 0.0 1002630
12:00+16s7146789 0.0 10011443
15:00+16s8156199 0.3 9991851
18:00+10sw71388100 1.6 10011334
21:00+7sw5118741 1.6 1004881
7 may, fri
fri700:00+6sw51290100 0.0 1005705
03:00+5sw41191100 0.0 1007662
06:00+5sw3988100 0.0 1008833
09:00+9wsw57665 0.0 10091049
12:00+12sw5941100 0.0 10102568
15:00+12sw694753 0.1 10102089
18:00+11ssw596761 0.5 10101292
21:00+7s3118664 0.8 1011284
8 may, sat
sat800:00+7sse31285100 0.0 1010293
03:00+8sse51381100 0.4 10091213
06:00+7sse71592100 3.9 10061343
09:00+7sse61494100 7.0 1005942
12:00+8sse51195100 3.2 10021172
15:00+8s4996100 5.6 1001606
18:00+8s2798100 0.8 1000363
21:00+7w5895100 4.4 10011000
9 may, sun
sun900:00+4wsw61097100 1.9 1004998
03:00+3w71497100 4.4 1007953
06:00+3w61190100 0.1 10111019
09:00+5w6978100 0.1 10131118
12:00+9wnw696082 0.3 10161745
15:00+10wnw585491 1.1 10191918
18:00+11wnw364826 0.1 10202222
21:00+5w22692 0.1 102310
10 may, mon
mon1000:00+3wsw22705 0.0 102527
03:00+2sw228016 0.0 102735
06:00+4sw277712 0.0 1029166
09:00+11sw47557 0.0 1029640
12:00+15wsw5644100 0.0 10281547
15:00+12sw3864100 0.0 1029562
18:00+14sw36595 0.0 1028847
21:00+9ssw35845 0.0 103076